Opa Locka, FL

1:36 PM EDT on March 29, 2017 (GMT -0400)
Opa Locka

Weather History for KOPF - November, 2013

Change the Weather History Date:

Monday, November 11, 2013

  Actual Average Record
Temperature  
Mean Temperature 78 °F -  
Max Temperature 84 °F 81 °F 88 °F (2002)
Min Temperature 72 °F 63 °F 50 °F (1962)
Cooling Degree Days 13    
Growing Degree Days 28 (Base 50)    
Moisture  
Dew Point 68 °F    
Average Humidity 73    
Maximum Humidity 91    
Minimum Humidity 59    
Precipitation  
Precipitation 0.00 in - - ()
Sea Level Pressure  
Sea Level Pressure 30.08 in    
Wind  
Wind Speed 8 mph (NE)    
Max Wind Speed 20 mph    
Max Gust Speed 23 mph    
Visibility 10 miles    
Events      
Averages and records for this station are not official NWS values.
T = Trace of Precipitation, MM = Missing Value Source: NWS Daily Summary

Daily Weather History Graph

Daily Weather History Graph

Search for Another Location

Airport or City:

Trip Planner

Search our weather history database for the weather conditions in past years. The results will help you decide how hot, cold, wet, or windy it might be!

Date:

Astronomy

Nov. 11, 2013 Rise Set
Actual Time 6:36 AM EST 5:33 PM EST
Civil Twilight 6:12 AM EST 5:57 PM EST
Nautical Twilight 5:44 AM EST 6:25 PM EST
Astronomical Twilight 5:17 AM EST 6:52 PM EST
Moon 1:41 PM EST (11/11) 12:55 AM EST (11/11)
Length of Visible Light 11h 45m
Length of Day
10h 57m
Waxing Gibbous, 66% of the Moon is Illuminated
Nov 11
Waxing Gibbous
Nov 17
Full
Nov 25
Last Quarter
Dec 2
New
Dec 9
First Quarter

Hourly Weather History & Observations

Time (EST) Temp. Heat Index Dew Point Humidity Pressure Visibility Wind Dir Wind Speed Gust Speed Precip Events Conditions
12:53 AM 75.0 °F - 68.0 °F 79% 30.08 in 10.0 mi NNE 3.5 mph - N/A   Clear
1:53 AM 73.9 °F - 69.1 °F 85% 30.07 in 10.0 mi NNW 4.6 mph - N/A   Mostly Cloudy
2:53 AM 72.0 °F - 69.1 °F 91% 30.06 in 10.0 mi North 4.6 mph - N/A   Clear
3:53 AM 72.0 °F - 68.0 °F 87% 30.06 in 10.0 mi North 4.6 mph - N/A   Clear
4:53 AM 72.0 °F - 68.0 °F 87% 30.06 in 10.0 mi North 5.8 mph - N/A   Clear
5:53 AM 72.0 °F - 68.0 °F 87% 30.08 in 10.0 mi North 5.8 mph - N/A   Clear
6:53 AM 73.0 °F - 68.0 °F 84% 30.09 in 10.0 mi North 4.6 mph - N/A   Mostly Cloudy
7:53 AM 75.9 °F - 69.1 °F 79% 30.09 in 10.0 mi North 5.8 mph - N/A   Partly Cloudy
8:53 AM 81.0 °F 84.4 °F 70.0 °F 69% 30.11 in 10.0 mi East 11.5 mph - N/A   Scattered Clouds
9:23 AM 82.4 °F 86.3 °F 69.8 °F 66% 30.11 in 10.0 mi East 16.1 mph 20.7 mph N/A   Mostly Cloudy
9:34 AM 82.4 °F 86.3 °F 69.8 °F 66% 30.11 in 10.0 mi East 13.8 mph 23.0 mph N/A   Mostly Cloudy
9:53 AM 82.9 °F 87.0 °F 70.0 °F 65% 30.12 in 10.0 mi East 19.6 mph - N/A   Mostly Cloudy
10:53 AM 84.0 °F 88.4 °F 70.0 °F 63% 30.12 in 10.0 mi East 15.0 mph - N/A   Scattered Clouds
11:53 AM 84.0 °F 88.4 °F 70.0 °F 63% 30.10 in 10.0 mi NE 12.7 mph - N/A   Mostly Cloudy
12:53 PM 84.9 °F 88.8 °F 69.1 °F 59% 30.08 in 10.0 mi ENE 15.0 mph - N/A   Clear
1:53 PM 82.9 °F 86.5 °F 69.1 °F 63% 30.07 in 10.0 mi ENE 12.7 mph - N/A   Partly Cloudy
2:53 PM 82.9 °F 86.5 °F 69.1 °F 63% 30.06 in 10.0 mi ENE 12.7 mph 20.7 mph N/A   Mostly Cloudy
3:53 PM 80.1 °F 82.7 °F 68.0 °F 67% 30.06 in 10.0 mi East 13.8 mph - N/A   Partly Cloudy
4:53 PM 79.0 °F - 66.9 °F 66% 30.06 in 10.0 mi ENE 12.7 mph - N/A   Clear
5:53 PM 78.1 °F - 66.0 °F 66% 30.06 in 10.0 mi ENE 9.2 mph - N/A   Clear
6:53 PM 78.1 °F - 66.0 °F 66% 30.06 in 10.0 mi NE 5.8 mph - N/A   Clear
7:53 PM 77.0 °F - 66.9 °F 71% 30.07 in 10.0 mi ENE 6.9 mph - N/A   Clear
8:53 PM 75.9 °F - 66.9 °F 74% 30.07 in 10.0 mi ENE 6.9 mph - N/A   Clear
9:53 PM 75.9 °F - 66.9 °F 74% 30.09 in 10.0 mi NE 4.6 mph - N/A   Clear
10:53 PM 75.0 °F - 66.9 °F 76% 30.09 in 10.0 mi NE 4.6 mph - N/A   Clear
11:53 PM 75.0 °F - 66.9 °F 76% 30.07 in 10.0 mi NE 4.6 mph - N/A   Clear